Location: Arrien
(42.8963°N, 1.0429°E)
Time: 10:18:37
(UTC+00:00)

ISS - Pass Details

Date: 15 February 2026
Orbit: 416 x 426 km, 51.6° (Epoch: 10 March)

Event Time Altitude Azimuth Distance (km) Brightness Sun altitude
Exits shadow 06:07:58 11° 257° (WSW) 1,445 -1.6 -8.9°
Maximum altitude 06:11:06 48° 332° (NNW) 556 -3.4 -8.4°
Drops below altitude 10° 06:14:21 10° 49° (NE) 1,493 -0.4 -7.8°
Sets 06:16:30 0° 55° (NE) 2,358 0.8 -7.4°
